TimeEDT,TemperatureF,Dew PointF,Humidity,Sea Level PressureIn,VisibilityMPH,Wind Direction,Wind SpeedMPH,Gust SpeedMPH,PrecipitationIn,Events,Conditions,WindDirDegrees,DateUTC
12:53 AM,39.9,15.1,36,30.16,10.0,WNW,6.9,-,N/A,,Partly Cloudy,300,2013-03-15 04:53:00
1:53 AM,39.0,15.1,38,30.15,10.0,Calm,Calm,-,N/A,,Mostly Cloudy,0,2013-03-15 05:53:00
2:53 AM,37.9,15.1,39,30.13,10.0,WNW,4.6,-,N/A,,Clear,300,2013-03-15 06:53:00
3:53 AM,37.0,16.0,42,30.11,10.0,WSW,3.5,-,N/A,,Clear,240,2013-03-15 07:53:00
4:53 AM,37.0,15.1,41,30.11,10.0,Calm,Calm,-,N/A,,Clear,0,2013-03-15 08:53:00
5:53 AM,32.0,18.0,56,30.10,10.0,SE,3.5,-,N/A,,Clear,140,2013-03-15 09:53:00
6:53 AM,33.1,18.0,54,30.13,10.0,Calm,Calm,-,N/A,,Clear,0,2013-03-15 10:53:00
7:53 AM,33.1,18.0,54,30.14,10.0,Calm,Calm,-,N/A,,Partly Cloudy,0,2013-03-15 11:53:00
8:53 AM,37.0,18.0,46,30.14,10.0,South,6.9,-,N/A,,Clear,190,2013-03-15 12:53:00
9:53 AM,44.1,19.0,37,30.12,10.0,SSW,9.2,-,N/A,,Clear,200,2013-03-15 13:53:00
10:53 AM,50.0,23.0,35,30.10,10.0,SW,10.4,19.6,N/A,,Clear,220,2013-03-15 14:53:00
11:53 AM,53.1,26.1,35,30.07,10.0,SSW,12.7,18.4,N/A,,Clear,200,2013-03-15 15:53:00
12:53 PM,55.0,27.0,34,30.04,10.0,South,10.4,19.6,N/A,,Clear,190,2013-03-15 16:53:00
1:53 PM,57.0,28.9,34,30.00,10.0,South,15.0,20.7,N/A,,Clear,190,2013-03-15 17:53:00
2:53 PM,61.0,32.0,34,29.96,10.0,SSW,15.0,21.9,N/A,,Clear,200,2013-03-15 18:53:00
3:53 PM,64.0,33.1,31,29.91,10.0,SSW,13.8,20.7,N/A,,Clear,200,2013-03-15 19:53:00
4:53 PM,64.9,33.1,31,29.89,10.0,SSW,16.1,23.0,N/A,,Clear,210,2013-03-15 20:53:00
5:53 PM,64.9,34.0,32,29.88,10.0,SSW,13.8,20.7,N/A,,Clear,200,2013-03-15 21:53:00
6:53 PM,64.0,34.0,33,29.87,10.0,SSW,9.2,17.3,N/A,,Clear,210,2013-03-15 22:53:00
7:53 PM,60.1,35.1,39,29.88,10.0,South,3.5,-,N/A,,Mostly Cloudy,180,2013-03-15 23:53:00
8:53 PM,57.9,35.1,42,29.88,10.0,South,4.6,-,N/A,,Scattered Clouds,190,2013-03-16 00:53:00
9:53 PM,57.9,35.1,42,29.87,10.0,SSW,3.5,-,N/A,,Partly Cloudy,210,2013-03-16 01:53:00
10:53 PM,55.0,35.1,47,29.87,10.0,Calm,Calm,-,N/A,,Clear,0,2013-03-16 02:53:00
11:53 PM,53.1,36.0,52,29.86,10.0,Calm,Calm,-,N/A,,Scattered Clouds,0,2013-03-16 03:53:00